This demonstration page uses our WeatherBlox Daily Observations layout. Learn more.

Left ArrowRight Arrow

39.01783, -85.05884

Hourly Observations for June 14, 2018

Temp ( °F °C ) Dew Point ( °F °C ) Humidity (%) Winds ( mph kmh ) Pressure ( in mb ) Visibility ( mi km ) Precip ( " mm )
12:52 am 00:52 Cloudy 70 21.1 66 18.9 87 87 NNW 9 15 29.99 1016 10 16 N/A
1:52 am 01:52 Cloudy 70 21.1 57 13.9 64 64 N 10 17 29.99 1016 10 16 N/A
2:52 am 02:52 Mostly Clear 67 19.4 55 12.8 66 66 N 9 15 29.99 1016 10 16 N/A
3:52 am 03:52 Mostly Cloudy 66 18.9 54 12.2 65 65 N 8 13 29.99 1016 10 16 N/A
4:52 am 04:52 Mostly Clear 66 18.9 52 11.1 61 61 NNE 6 9 30.00 1016 10 16 N/A
5:52 am 05:52 Mostly Clear 66 18.9 51 10.6 59 59 NNE 3 6 30.01 1016 10 16 N/A
6:52 am 06:52 Sunny 65 18.3 51 10.6 61 61 VRB 3 6 30.02 1017 10 16 N/A
7:52 am 07:52 Mostly Sunny 66 18.9 54 12.2 65 65 NNW 5 7 30.05 1018 10 16 N/A
8:52 am 08:52 Mostly Sunny 70 21.1 53 11.7 55 55 NE 7 11 30.05 1018 10 16 N/A
9:52 am 09:52 Mostly Sunny 72 22.2 54 12.2 53 53 ENE 5 7 30.05 1018 10 16 N/A
10:52 am 10:52 Mostly Sunny 76 24.4 55 12.8 48 48 ENE 5 7 30.05 1018 10 16 N/A
11:52 am 11:52 Sunny 78 25.6 44 6.7 30 30 N N/A 30.06 1018 10 16 N/A
12:52 pm 12:52 Mostly Sunny 80 26.7 50 10 35 35 VRB 3 6 30.06 1018 10 16 N/A
1:52 pm 13:52 Mostly Cloudy 82 27.8 46 7.8 28 28 VRB 3 6 30.04 1017 10 16 N/A
2:52 pm 14:52 Mostly Cloudy 83 28.3 43 6.1 24 24 N N/A 30.04 1017 10 16 N/A
3:52 pm 15:52 Mostly Cloudy 84 28.9 48 8.9 29 29 N N/A 30.02 1017 10 16 N/A
4:52 pm 16:52 Partly Cloudy 84 28.9 49 9.4 30 30 W 6 9 30.01 1016 10 16 N/A
5:52 pm 17:52 Partly Cloudy 83 28.3 51 10.6 33 33 W 7 11 30.01 1016 10 16 N/A
6:52 pm 18:52 Partly Cloudy 83 28.3 52 11.1 34 34 N 10 17 29.98 1015 10 16 N/A
7:52 pm 19:52 Mostly Cloudy 79 26.1 53 11.7 41 41 NNW 8 13 29.98 1015 10 16 N/A
8:52 pm 20:52 Mostly Cloudy 77 25 54 12.2 45 45 N 7 11 29.98 1015 10 16 N/A
9:52 pm 21:52 Mostly Cloudy 74 23.3 55 12.8 52 52 NW 3 6 30.00 1016 10 16 N/A
10:52 pm 22:52 Mostly Cloudy 73 22.8 54 12.2 51 51 N N/A 30.01 1016 10 16 N/A
11:52 pm 23:52 Mostly Cloudy 71 21.7 54 12.2 55 55 SSE 5 7 30.00 1016 10 16 N/A

Powered by AerisWeather